Regional Weather Roundup
Issued by NWS Cleveland, OH

Home | Current Version | Previous Version | Graphics & Text | Print | Product List | Glossary On
Versions: 1 2 3 4 5 6 7 8 9 10 11 12 13 14 15 16 17 18 19 20 21 22 23 24 25 26 27 28 29 30 31 32 33 34 35 36 37 38 39 40 41 42 43 44 45 46 47 48 49 50
656
ASUS41 KCLE 232110
RWRCLE
OHIO REGIONAL WEATHER ROUNDUP
NATIONAL WEATHER SERVICE CLEVELAND, OH
400 PM EST THU FEB 23 2017

NOTE: "FAIR" INDICATES FEW OR NO CLOUDS BELOW 12,000 FEET WITH NO
SIGNIFICANT WEATHER AND/OR OBSTRUCTIONS TO VISIBILITY.

OHZ001>008-015>018-024>027-034-035-043-044-232200-
   NORTHWEST OHIO

CITY           SKY/WX    TMP DP  RH WIND       PRES   REMARKS
DEFIANCE       CLOUDY    65  45  48 W5        29.76R
FINDLAY        PTSUNNY   65  53  65 W10       29.75R
TOLEDO EXPRESS PTSUNNY   66  46  48 NW9       29.75R
TOLEDO EXEC    MOSUNNY   68  47  46 W8        29.76R
LIMA           CLOUDY    65  56  72 W9        29.76R
$$

OHZ009>014-019>023-028>033-038-089-232200-
   NORTHEAST OHIO

CITY           SKY/WX    TMP DP  RH WIND       PRES   REMARKS
CLE-HOPKINS    PTSUNNY   67  52  58 SW10      29.78S
CLE-LAKEFRONT  MOSUNNY   55  48  77 CALM      29.75F
CUY CO. ARPT   MOSUNNY   64  54  68 W9        29.77R
LORAIN-ELYRIA  PTSUNNY   64  52  64 W14       29.77R
ASHTABULA      SUNNY     63  54  72 NW7       29.77R
AKRON-CANTON   CLOUDY    68  53  58 SW14      29.77S
WOOSTER        PTSUNNY   66  53  63 W8        29.77R
MANSFIELD      PTSUNNY   66  53  63 SW8       29.77R
YOUNGSTOWN     PTSUNNY   66  53  63 SW8       29.76S
$$

OHZ042-051>053-060>062-070>072-077>081-232200-
  SOUTHWEST OHIO

CITY           SKY/WX    TMP DP  RH WIND       PRES   REMARKS
CINC-COVINGTON CLOUDY    69  55  60 S15G22    29.76S
CINC-LUNKEN    CLOUDY    72  58  61 SW9       29.76R
HAMILTON       CLOUDY    70  56  61 VRB7      29.76R
DAYTON         CLOUDY    68  54  60 S10       29.76R
WRIGHT-PAT AFB PTSUNNY   69  57  65 S13       29.75R
DAYTON GENERAL CLOUDY    68  54  60 SW9       29.74F
WILMINGTON     PTSUNNY   68  55  63 SW15G21   29.75F
$$

OHZ036-037-039>041-045>050-054>059-063>069-073>076-082>088-232200-
  CENTRAL AND SOUTHEAST OHIO

CITY           SKY/WX    TMP DP  RH WIND       PRES   REMARKS
COLUMBUS       CLOUDY    70  53  54 SW12      29.76S
OSU AIRPORT    CLOUDY    67  56  67 S13       29.76R
BOLTON FIELD   CLOUDY    66  55  68 SW9       29.78R
RICKENBACK AFB CLOUDY    68  56  66 SW8       29.76S
NEWARK         CLOUDY    69  55  60 W9        29.77R
MARION         MOSUNNY   67  53  61 W12       29.77R
LANCASTER      MOSUNNY   70  56  61 SW10      29.78R
ZANESVILLE     CLOUDY    70  53  54 SW8       29.77S
NEW PHILLY     NOT AVBL
$$




USA.gov is the U.S. government's official web portal to all federal, state and local government web resources and services.